Regional Weather Roundup
Issued by NWS Kansas City/Pleasant Hill, MO

Home | Current Version | Previous Version | Text Only | Print | Product List | Glossary On
Versions: 1 2 3 4 5 6 7 8 9 10 11 12 13 14 15 16 17 18 19 20 21 22 23 24 25 26 27 28 29 30 31 32 33 34 35 36 37 38 39 40 41 42 43 44 45 46 47 48 49 50
000
ASUS43 KEAX 300511
RWREAX

WEATHER ROUNDUP FOR EASTERN KANSAS AND NORTHWEST MISSOURI
NATIONAL WEATHER SERVICE KANSAS CITY/PLEASANT HILL MO
1200 AM CDT SAT AUG 30 2014

KSZ040-057-103>105-MOZ028-029-037-043-300600-
...KANSAS CITY METROPOLITAN AREA...

CITY           SKY/WX    TMP DP  RH WIND       PRES   REMARKS
K.C. INTL      CLOUDY    72  68  87 SW10      29.87S
K.C. DOWNTOWN  CLOUDY    74  69  85 NW3       29.86R
LEES SUMMIT    PTCLDY    72  67  84 SW7       29.88R
OLATHE - IXD   CLEAR     75  66  73 SW12      29.88R
OLATHE - OJC   CLEAR     76  65  68 SW8       29.88R
LAWRENCE       PTCLDY    78  67  68 W12       29.87R

$$

MOZ001>008-011>017-020>025-030>033-038>040-044>046-053-054-300600-
...NORTHERN AND CENTRAL MISSOURI...

CITY           SKY/WX    TMP DP  RH WIND       PRES   REMARKS
ST. JOSEPH     MOCLDY    70  67  90 SW6       29.85R
MOSBY          RAIN      72  68  88 W12G23    29.89R
WHITEMAN AFB   PTCLDY    72  68  86 S9        29.87S
CLINTON        CLEAR     75  66  73 S7        29.89S
SEDALIA        CLEAR     74  68  81 S9        29.89S
WARSAW         NOT AVBL
MARSHALL       LGT RAIN  77  70  78 S5        29.89S
CHILLICOTHE      N/A     72  64  76 S9        29.86R
MOBERLY        CLEAR     75  70  83 S9        29.87S
KIRKSVILLE     MOCLDY    71  68  90 S6        29.86R

$$

MOZ041-047>049-056>058-063>065-088>090-097-300600-
...EASTERN AND SOUTHERN MISSOURI...

CITY           SKY/WX    TMP DP  RH WIND       PRES   REMARKS
ST. LOUIS INTL CLOUDY    79  69  71 S9G18     29.92S
SPIRIT OF STL  CLOUDY    78  68  71 SW6       29.90S
COLUMBIA       CLEAR     72  70  93 S9        29.90S
JEFFERSON CITY CLEAR     73  69  87 SE5       29.89S
MEXICO         CLEAR    N/A N/A N/A S9        29.89S
HANNIBAL       PTCLDY    73  70  88 S5        29.88S
ROLLA          PTCLDY    71  67  87 S9        29.94R
LEBANON        PTCLDY    70  68  94 S8        29.97R
OSAGE BEACH    CLEAR     72  66  83 S8        29.92S
SPRINGFIELD    PTCLDY    73  68  84 S10       29.95R
BRANSON        PTCLDY    72  68  88 CALM      29.98F
NEVADA         PTCLDY    72  66  83 S7        29.92R
JOPLIN         CLEAR     75  66  73 S9        29.93R
WEST PLAINS    LGT RAIN  72  68  87 S6        30.00S

$$

IAZ060-094-KSZ022-034>040-054-083-096-NEZ052-066-093-300600-
...KANSAS...SOUTHEAST NEBRASKA AND IOWA...

CITY           SKY/WX    TMP DP  RH WIND       PRES   REMARKS
TOPEKA         PTCLDY    74  70  87 W5        29.88R
MANHATTAN      CLEAR     72  65  78 SW7       29.88R
EMPORIA        CLEAR     71  65  81 SW7       29.90R
CHANUTE        CLEAR     73  66  78 S6        29.91R
WICHITA        PTCLDY    70  66  87 S3        29.91R
OMAHA          CLEAR     69  65  86 CALM      29.83S
LINCOLN        CLEAR     69  66  90 W3        29.86F
FALLS CITY     PTCLDY    70  68  93 NW5       29.85R
LAMONI         LGT RAIN  66  64  93 E3        29.84F
DES MOINES     LGT RAIN  70  67  90 SW9       29.81R

$$




USA.gov is the U.S. government's official web portal to all federal, state and local government web resources and services.